Content
SEND FEEDBACK

Daily
Averages
Monthly
Summary
Canada

VANCOUVER, BRITISH COLUMBIA


Home > North America > Canada > British Columbia
Elevation: 7 feet     Latitude: 49 11N     Longitude: 123 10W

WEATHER
 
SELECT A DAY
Number of Records: 252,212;   Date Range: 5/15/97 - 9/29/14
 
SHARE

PRINT THIS DATA

[ ← Previous Day ]
WEATHER ALMANAC - JUNE 13, 2013
[ Next Day → ]
[ °C ]   °F
Weather ElementAverageHighLow
Temperature56.9 °F66.2 °F (4:55 pm)46.4 °F (5:15 am)
Dewpoint49 °F53.6 °F (10:55 am)44.6 °F (5:55 pm)
Humidity76.6 %100 % (4:35 am)46 % (5:55 pm)
Barometer30.15 in30.17 in (11:15 am)30.12 in (1:55 am)
Wind Speed3.7 mph11.5 mph (5:15 pm)
Wind Gust16.1 mph (5:15 pm)
Weather ElementAverage
Visibility10 mi
Wind DirectionESE (102.3 °)

Weather ElementTotal
Precipitation---
Heating Degree Days8.7 (Base 65)
Growing Degree Days6.3 (Base 50)
Averaged from 71 records on June 13, 2013
WEATHER CONDITIONS BREAKOUT
WIND DIRECTION BREAKOUT
WEATHER BY HOUR - JUNE 13, 2013
[ °C ]   °F
Local TimeTemperatureDewpointHumidityBarometerVisibilityWind DirectionWind SpeedGust SpeedPrecipitationEventsConditions
12:35 AM51.8 °F48.2 °F88 %30.13 in10.0 miCalmMostly Cloudy
12:55 AM51.8 °F48.2 °F88 %30.13 in10.0 miCalmMostly Cloudy
1:15 AM50.0 °F48.2 °F94 %30.13 in10.0 miCalmMostly Cloudy
1:35 AM51.8 °F48.2 °F88 %30.13 in10.0 miCalmMostly Cloudy
1:55 AM51.8 °F48.2 °F88 %30.12 in10.0 miNorthScattered Clouds
2:15 AM51.8 °F48.2 °F88 %30.13 in10.0 miCalmPartly Cloudy
2:35 AM51.8 °F48.2 °F88 %30.13 in10.0 miCalmScattered Clouds
2:55 AM51.8 °F48.2 °F88 %30.13 in10.0 miCalmMostly Cloudy
3:15 AM50.0 °F48.2 °F94 %30.13 in10.0 miCalmOvercast
3:35 AM50.0 °F48.2 °F94 %30.13 in10.0 miCalmScattered Clouds
3:55 AM50.0 °F48.2 °F94 %30.13 in10.0 miNorthClear
4:15 AM50.0 °F48.2 °F94 %30.13 in10.0 miCalmClear
4:35 AM48.2 °F48.2 °F100 %30.13 in10.0 miCalmClear
4:55 AM48.2 °F46.4 °F93 %30.14 in10.0 miCalmClear
5:15 AM46.4 °F46.4 °F100 %30.14 in10.0 miCalmClear
5:35 AM46.4 °F46.4 °F100 %30.14 in10.0 miCalmClear
5:55 AM48.2 °F46.4 °F93 %30.14 in10.0 miCalmClear
6:15 AM48.2 °F48.2 °F100 %30.14 in10.0 miCalmClear
6:35 AM50.0 °F48.2 °F94 %30.14 in9.0 miCalmClear
6:55 AM51.8 °F50.0 °F94 %30.15 in10.0 miCalmClear
7:15 AM53.6 °F50.0 °F88 %30.15 in10.0 miCalmClear
7:35 AM53.6 °F50.0 °F88 %30.15 in10.0 miCalmClear
7:55 AM55.4 °F50.0 °F82 %30.15 in10.0 miCalmPartly Cloudy
8:15 AM55.4 °F51.8 °F88 %30.15 in10.0 miCalmClear
8:35 AM55.4 °F50.0 °F82 %30.16 in10.0 miCalmClear
8:55 AM55.4 °F51.8 °F88 %30.16 in10.0 miCalmClear
9:15 AM55.4 °F50.0 °F82 %30.16 in10.0 miNorth (360°)4.6 mphClear
9:35 AM55.4 °F50.0 °F82 %30.16 in10.0 miCalmClear
9:55 AM57.2 °F50.0 °F77 %30.16 in10.0 miCalmClear
10:15 AM57.2 °F51.8 °F82 %30.16 in10.0 miCalmClear
10:35 AM57.2 °F51.8 °F82 %30.16 in10.0 miCalmClear
10:55 AM57.2 °F53.6 °F88 %30.16 in10.0 miNNW (330°)4.6 mphClear
11:15 AM57.2 °F53.6 °F88 %30.17 in10.0 miNorth (350°)6.9 mphPartly Cloudy
11:35 AM59.0 °F51.8 °F77 %30.17 in10.0 miNorth (360°)5.8 mphClear
11:55 AM59.0 °F53.6 °F82 %30.17 in10.0 miNorth (10°)4.6 mphClear
12:15 PM59.0 °F51.8 °F77 %30.17 in10.0 miNorth (10°)4.6 mphPartly Cloudy
12:35 PM59.0 °F50.0 °F72 %30.17 in10.0 miNNE (20°)4.6 mphClear
12:55 PM60.8 °F50.0 °F68 %30.17 in10.0 miNorth (10°)5.8 mphClear
1:15 PM59.0 °F50.0 °F72 %30.17 in10.0 miCalmPartly Cloudy
1:35 PM59.0 °F50.0 °F72 %30.17 in10.0 miNorth (350°)3.5 mphClear
1:55 PM60.8 °F50.0 °F68 %30.17 in10.0 miNorth (350°)4.6 mphClear
2:15 PM62.6 °F48.2 °F59 %30.17 in10.0 miNorth (10°)5.8 mphClear
2:35 PM62.6 °F48.2 °F59 %30.16 in10.0 miNorth (360°)4.6 mphClear
2:55 PM62.6 °F48.2 °F59 %30.16 in10.0 miNorth (10°)5.8 mphClear
3:15 PM62.6 °F48.2 °F59 %30.16 in10.0 miCalmClear
3:35 PM62.6 °F48.2 °F59 %30.16 in10.0 miCalmClear
3:55 PM64.4 °F50.0 °F59 %30.16 in10.0 miSW (220°)5.8 mphClear
4:15 PM64.4 °F50.0 °F59 %30.15 in10.0 miSouth (190°)4.6 mphClear
4:35 PM64.4 °F48.2 °F56 %30.15 in10.0 miSouth (190°)6.9 mphClear
4:55 PM66.2 °F48.2 °F52 %30.15 in10.0 miSouth (190°)6.9 mphClear
5:15 PM66.2 °F46.4 °F49 %30.15 in10.0 miSouth (190°)11.5 mph16.1 mphClear
5:35 PM66.2 °F46.4 °F49 %30.14 in10.0 miSSE (160°)6.9 mphPartly Cloudy
5:55 PM66.2 °F44.6 °F46 %30.14 in10.0 miSouth (190°)9.2 mphClear
6:15 PM66.2 °F46.4 °F49 %30.14 in10.0 miSSE (160°)5.8 mphClear
6:35 PM66.2 °F46.4 °F49 %30.14 in10.0 miSouth (190°)6.9 mphClear
6:55 PM64.4 °F50.0 °F59 %30.13 in10.0 miSSW (200°)10.4 mphClear
7:15 PM62.6 °F48.2 °F59 %30.14 in10.0 miSSW (200°)9.2 mphClear
7:35 PM62.6 °F48.2 °F59 %30.14 in10.0 miSouth (190°)8.1 mphClear
7:55 PM59.0 °F48.2 °F67 %30.14 in10.0 miSouth (190°)8.1 mphPartly Cloudy
8:15 PM59.0 °F48.2 °F67 %30.14 in10.0 miSouth (180°)6.9 mphPartly Cloudy
8:35 PM59.0 °F48.2 °F67 %30.14 in10.0 miSouth (190°)6.9 mphPartly Cloudy
8:55 PM59.0 °F48.2 °F67 %30.14 in10.0 miSouth (190°)5.8 mphPartly Cloudy
9:15 PM57.2 °F48.2 °F72 %30.15 in9.0 miSouth (190°)8.1 mphScattered Clouds
9:35 PM57.2 °F48.2 °F72 %30.15 in10.0 miSouth (180°)5.8 mphOvercast
9:55 PM57.2 °F48.2 °F72 %30.15 in10.0 miSouth (190°)6.9 mphOvercast
10:15 PM57.2 °F50.0 °F77 %30.16 in10.0 miSouth (180°)6.9 mphOvercast
10:35 PM57.2 °F50.0 °F77 %30.16 in10.0 miSouth (190°)10.4 mphMostly Cloudy
10:55 PM55.4 °F50.0 °F82 %30.16 in10.0 miSSW (200°)8.1 mphScattered Clouds
11:15 PM55.4 °F48.2 °F77 %30.16 in10.0 miSouth (190°)8.1 mphMostly Cloudy
11:35 PM55.4 °F48.2 °F77 %30.17 in10.0 miSSW (200°)8.1 mphScattered Clouds
11:55 PM55.4 °F48.2 °F77 %30.17 in10.0 miSouth (190°)6.9 mphRainLight Rain
Hourly data recorded from CZBB, located miles away from Vancouver, British Columbia







STORIES FROM OUR PARTNERS